Chicago DuPage, IL

7:36 AM CDT on May 24, 2017 (GMT -0500)
Du Page

Weather History for KDPA - August, 2014

Change the Weather History Date:

Saturday, August 9, 2014

  Actual Average Record
Temperature  
Mean Temperature 72 °F 73 °F  
Max Temperature 81 °F 83 °F 94 °F (2005)
Min Temperature 62 °F 62 °F 49 °F (1999)
Degree Days  
Heating Degree Days 0 0  
Month to date heating degree days 0 0  
Since 1 June heating degree days 27 38  
Since 1 July heating degree days 9 2  
Cooling Degree Days 7 8  
Month to date cooling degree days 66 72  
Year to date cooling degree days 496 574  
Since 1 June cooling degree days 427 528  
Growing Degree Days 22 (Base 50)    
Moisture  
Dew Point 58 °F    
Average Humidity 64    
Maximum Humidity 90    
Minimum Humidity 43    
Precipitation  
Precipitation 0.00 in 0.15 in 0.88 in (2008)
Month to date precipitation 0.66 1.47  
Year to date precipitation 17.42 22.50  
Sea Level Pressure  
Sea Level Pressure 30.07 in    
Wind  
Wind Speed 8 mph (NE)    
Max Wind Speed 17 mph    
Max Gust Speed 23 mph    
Visibility 9 miles    
Events      
T = Trace of Precipitation, MM = Missing Value Source: NWS Daily Summary

Daily Weather History Graph

Daily Weather History Graph

Search for Another Location

Airport or City:

Trip Planner

Search our weather history database for the weather conditions in past years. The results will help you decide how hot, cold, wet, or windy it might be!

Date:

Astronomy

Aug. 09, 2014 Rise Set
Actual Time 5:54 AM CDT 8:01 PM CDT
Civil Twilight 5:24 AM CDT 8:31 PM CDT
Nautical Twilight 4:46 AM CDT 9:09 PM CDT
Astronomical Twilight 4:05 AM CDT 9:50 PM CDT
Moon 7:02 PM CDT (8/9) 4:35 AM CDT (8/9)
Length of Visible Light 15h 07m
Length of Day
14h 06m
Waxing Gibbous, 98% of the Moon is Illuminated
Aug 9
Waxing Gibbous
Aug 10
Full
Aug 17
Last Quarter
Aug 25
New
Sep 2
First Quarter

Hourly Weather History & Observations

Time (CDT) Temp. Heat Index Dew Point Humidity Pressure Visibility Wind Dir Wind Speed Gust Speed Precip Events Conditions
12:52 AM 64.9 °F - 61.0 °F 87% 30.06 in 8.0 mi North 6.9 mph - N/A   Clear
1:52 AM 64.0 °F - 60.1 °F 87% 30.05 in 8.0 mi NE 3.5 mph - N/A   Clear
2:52 AM 64.0 °F - 61.0 °F 90% 30.06 in 8.0 mi NE 4.6 mph - N/A   Clear
3:52 AM 64.9 °F - 61.0 °F 87% 30.06 in 8.0 mi East 4.6 mph - N/A   Clear
4:52 AM 64.9 °F - 60.1 °F 84% 30.06 in 8.0 mi East 5.8 mph - N/A   Clear
5:52 AM 63.0 °F - 57.9 °F 84% 30.06 in 9.0 mi ENE 5.8 mph - N/A   Clear
6:52 AM 64.0 °F - 59.0 °F 84% 30.08 in 8.0 mi NNE 3.5 mph - N/A   Clear
7:52 AM 69.1 °F - 59.0 °F 70% 30.08 in 10.0 mi ENE 6.9 mph - N/A   Clear
8:52 AM 73.0 °F - 57.9 °F 59% 30.08 in 10.0 mi ENE 6.9 mph - N/A   Clear
9:52 AM 75.9 °F - 57.9 °F 54% 30.09 in 10.0 mi East 8.1 mph - N/A   Clear
10:52 AM 78.1 °F - 57.9 °F 50% 30.10 in 10.0 mi ENE 8.1 mph - N/A   Clear
11:52 AM 79.0 °F - 57.9 °F 48% 30.09 in 10.0 mi ENE 13.8 mph - N/A   Clear
12:52 PM 80.1 °F 80.6 °F 57.9 °F 47% 30.08 in 10.0 mi NE 13.8 mph - N/A   Clear
1:52 PM 81.0 °F 81.1 °F 57.9 °F 45% 30.07 in 10.0 mi ENE 12.7 mph 18.4 mph N/A   Clear
2:52 PM 79.0 °F - 57.0 °F 47% 30.07 in 10.0 mi NE 12.7 mph - N/A   Clear
3:52 PM 80.1 °F 80.2 °F 55.9 °F 43% 30.06 in 10.0 mi NE 11.5 mph 18.4 mph N/A   Clear
4:52 PM 79.0 °F - 55.9 °F 45% 30.06 in 10.0 mi NNE 11.5 mph - N/A   Clear
5:52 PM 78.1 °F - 55.0 °F 45% 30.04 in 10.0 mi ENE 10.4 mph - N/A   Clear
6:52 PM 75.0 °F - 57.0 °F 53% 30.04 in 10.0 mi NE 10.4 mph - N/A   Clear
7:52 PM 72.0 °F - 57.0 °F 59% 30.06 in 10.0 mi NNE 6.9 mph - N/A   Clear
8:52 PM 71.1 °F - 57.0 °F 61% 30.06 in 10.0 mi NNE 5.8 mph - N/A   Overcast
11:52 PM 69.1 °F - 60.1 °F 73% 30.05 in 10.0 mi NE 6.9 mph - N/A   Overcast